weather.gov     
National Weather Service

Terminal Aerodrome Forecast
NWS Homepage
This page is being discontinued on March 12, 2014.
The same data is available at this site. Please update your bookmarks.
Thank you, and we apologize for the inconvenience.
Please send an email to SR-SRH.Webmaster@noaa.gov with any concerns.


Current Version
Previous Version:    01  02  03  04  05  06  07  08  09  10  11  12  13  14  15  16  17  18  19  20  21  22  23  24  25  26  27  28  29  30  
   31  32  33  34  35  36  37  
[Printable]
401
FTUS41 KILN 012300
TAFDAY
TAF
KDAY 012337Z 0200/0224 21010KT P6SM FEW040 BKN250
     FM020800 22009KT P6SM -SHRA OVC080
     FM021000 21008KT P6SM -SHRA VCTS BKN040CB OVC080
     FM021300 24008KT 3SM -SHRA VCTS BKN025CB OVC040
     FM021600 25010KT P6SM VCSH BKN035
     FM022000 27010KT P6SM SCT035=


U.S. Dept. of Commerce
NOAA National Weather Service
1325 East West Highway
Silver Spring, MD 20910
E-mail: w-nws.webmaster@noaa.gov
Page last modified: May 16, 2007
NATIONAL WEATHER SERVICE: for Safety, for Work, for Fun - FOR LIFE